Wadena, MN

6:49 PM CDT on May 26, 2017 (GMT -0500)
Wadena Municipal

Weather History for KADC - June, 2013

Change the Weather History Date:

Thursday, June 6, 2013

  Actual Average Record
Temperature  
Mean Temperature 50 °F -  
Max Temperature 55 °F 74 °F 97 °F (1950)
Min Temperature 44 °F 50 °F 35 °F (1935)
Degree Days  
Heating Degree Days 16    
Moisture  
Dew Point 45 °F    
Average Humidity 84    
Maximum Humidity 100    
Minimum Humidity 72    
Precipitation  
Precipitation 0.00 in - - ()
Sea Level Pressure  
Sea Level Pressure 30.05 in    
Wind  
Wind Speed 5 mph (NE)    
Max Wind Speed 8 mph    
Max Gust Speed -    
Visibility 10 miles    
Events      
Averages and records for this station are not official NWS values.
T = Trace of Precipitation, MM = Missing Value Source: NWS Daily Summary

Daily Weather History Graph

Daily Weather History Graph

Search for Another Location

Airport or City:

Trip Planner

Search our weather history database for the weather conditions in past years. The results will help you decide how hot, cold, wet, or windy it might be!

Date:

Astronomy

Jun. 06, 2013 Rise Set
Actual Time 5:29 AM CDT 9:10 PM CDT
Civil Twilight 4:50 AM CDT 9:48 PM CDT
Nautical Twilight 3:59 AM CDT 10:40 PM CDT
Astronomical Twilight 2:48 AM CDT 11:52 PM CDT
Moon 4:17 AM CDT (6/6) 7:27 PM CDT (6/6)
Length of Visible Light 16h 57m
Length of Day
15h 40m
Waning Crescent, 3% of the Moon is Illuminated
Jun 6
Waning Crescent
Jun 8
New
Jun 16
First Quarter
Jun 23
Full
Jun 29
Last Quarter

Hourly Weather History & Observations

Time (CDT) Temp. Windchill Dew Point Humidity Pressure Visibility Wind Dir Wind Speed Gust Speed Precip Events Conditions
12:15 AM 48.2 °F - 46.4 °F 93% 30.05 in 10.0 mi NE 5.8 mph - N/A   Overcast
12:35 AM 48.2 °F - 46.4 °F 93% 30.05 in 10.0 mi ENE 4.6 mph - N/A   Overcast
12:52 AM 46.4 °F 43.5 °F 44.6 °F 93% 30.05 in 10.0 mi ENE 5.8 mph - N/A   Overcast
1:14 AM 46.4 °F 42.9 °F 44.6 °F 93% 30.05 in 10.0 mi ENE 6.9 mph - N/A   Overcast
1:23 AM 46.4 °F 44.3 °F 44.6 °F 93% 30.04 in 10.0 mi NNE 4.6 mph - N/A   Overcast
1:53 AM 46.4 °F 42.9 °F 44.6 °F 93% 30.05 in 10.0 mi NNE 6.9 mph - N/A   Overcast
2:15 AM 46.4 °F 42.9 °F 44.6 °F 93% 30.05 in 10.0 mi NNE 6.9 mph - N/A   Overcast
2:34 AM 46.4 °F 42.9 °F 44.6 °F 93% 30.04 in 10.0 mi NNE 6.9 mph - N/A   Overcast
2:53 AM 46.4 °F 44.3 °F 44.6 °F 93% 30.04 in 10.0 mi NE 4.6 mph - N/A   Overcast
3:15 AM 46.4 °F 43.5 °F 44.6 °F 93% 30.04 in 10.0 mi NE 5.8 mph - N/A   Overcast
3:35 AM 46.4 °F 44.3 °F 44.6 °F 93% 30.03 in 10.0 mi NNE 4.6 mph - N/A   Overcast
3:53 AM 46.4 °F 43.5 °F 44.6 °F 93% 30.03 in 10.0 mi NE 5.8 mph - N/A   Overcast
4:15 AM 46.4 °F 43.5 °F 42.8 °F 87% 30.03 in 10.0 mi NNE 5.8 mph - N/A   Overcast
4:34 AM 44.6 °F 41.4 °F 42.8 °F 93% 30.03 in 10.0 mi NE 5.8 mph - N/A   Overcast
4:52 AM 46.4 °F 43.5 °F 42.8 °F 87% 30.04 in 10.0 mi NNE 5.8 mph - N/A   Overcast
5:14 AM 46.4 °F 45.2 °F 42.8 °F 87% 30.04 in 10.0 mi NNE 3.5 mph - N/A   Overcast
5:35 AM 44.6 °F 41.4 °F 42.8 °F 93% 30.04 in 10.0 mi NNE 5.8 mph - N/A   Overcast
5:53 AM 44.6 °F 41.4 °F 42.8 °F 93% 30.04 in 10.0 mi NNE 5.8 mph - N/A   Overcast
6:15 AM 44.6 °F 40.7 °F 42.8 °F 93% 30.04 in 10.0 mi NNE 6.9 mph - N/A   Overcast
6:34 AM 46.4 °F 43.5 °F 42.8 °F 87% 30.04 in 10.0 mi NE 5.8 mph - N/A   Overcast
6:53 AM 46.4 °F 42.9 °F 42.8 °F 87% 30.04 in 10.0 mi NE 6.9 mph - N/A   Overcast
7:15 AM 46.4 °F 42.4 °F 42.8 °F 87% 30.04 in 10.0 mi NE 8.1 mph - N/A   Overcast
7:35 AM 46.4 °F 42.9 °F 42.8 °F 87% 30.04 in 10.0 mi NE 6.9 mph - N/A   Overcast
7:53 AM 46.4 °F 42.9 °F 42.8 °F 87% 30.04 in 10.0 mi NE 6.9 mph - N/A   Overcast
8:14 AM 46.4 °F 44.3 °F 44.6 °F 93% 30.04 in 10.0 mi NE 4.6 mph - N/A   Overcast
8:35 AM 46.4 °F 42.9 °F 44.6 °F 93% 30.04 in 10.0 mi NNE 6.9 mph - N/A   Overcast
8:53 AM 46.4 °F 42.9 °F 44.6 °F 93% 30.05 in 10.0 mi ENE 6.9 mph - N/A   Overcast
9:14 AM 46.4 °F 45.2 °F 44.6 °F 93% 30.04 in 10.0 mi NNE 3.5 mph - N/A   Overcast
9:35 AM 48.2 °F - 44.6 °F 87% 30.05 in 10.0 mi NE 4.6 mph - N/A   Overcast
9:52 AM 48.2 °F - 44.6 °F 87% 30.05 in 10.0 mi NNE 4.6 mph - N/A   Overcast
10:15 AM 48.2 °F - 46.4 °F 93% 30.05 in 10.0 mi NE 4.6 mph - N/A   Overcast
10:35 AM 50.0 °F - 46.4 °F 87% 30.05 in 10.0 mi Calm Calm - N/A   Overcast
10:52 AM 51.8 °F - 46.4 °F 82% 30.05 in 10.0 mi NE 4.6 mph - N/A   Overcast
11:15 AM 51.8 °F - 46.4 °F 82% 30.05 in 10.0 mi NE 6.9 mph - N/A   Overcast
11:35 AM 51.8 °F - 46.4 °F 82% 30.05 in 10.0 mi NE 6.9 mph - N/A   Overcast
11:53 AM 51.8 °F - 46.4 °F 82% 30.06 in 10.0 mi NE 5.8 mph - N/A   Overcast
12:15 PM 53.6 °F - 46.4 °F 77% 30.06 in 10.0 mi ENE 6.9 mph - N/A   Overcast
12:34 PM 53.6 °F - 46.4 °F 77% 30.06 in 10.0 mi ENE 5.8 mph - N/A   Overcast
12:53 PM 53.6 °F - 46.4 °F 77% 30.06 in 10.0 mi East 6.9 mph - N/A   Overcast
1:15 PM 53.6 °F - 46.4 °F 77% 30.06 in 10.0 mi East 6.9 mph - N/A   Overcast
1:34 PM 53.6 °F - 46.4 °F 77% 30.06 in 10.0 mi ENE 4.6 mph - N/A   Overcast
1:53 PM 53.6 °F - 46.4 °F 77% 30.06 in 10.0 mi ENE 5.8 mph - N/A   Overcast
2:15 PM 53.6 °F - 48.2 °F 82% 30.05 in 10.0 mi NNE 4.6 mph - N/A   Overcast
2:35 PM 55.4 °F - 46.4 °F 72% 30.05 in 10.0 mi NE 5.8 mph - N/A   Overcast
2:53 PM 55.4 °F - 46.4 °F 72% 30.05 in 10.0 mi ENE 5.8 mph - N/A   Overcast
3:15 PM 53.6 °F - 46.4 °F 77% 30.05 in 10.0 mi ENE 6.9 mph - N/A   Overcast
3:34 PM 55.4 °F - 46.4 °F 72% 30.05 in 10.0 mi NE 5.8 mph - N/A   Overcast
3:53 PM 53.6 °F - 46.4 °F 77% 30.05 in 10.0 mi NNE 5.8 mph - N/A   Overcast
4:15 PM 53.6 °F - 46.4 °F 77% 30.05 in 10.0 mi NNE 4.6 mph - N/A   Overcast
4:35 PM 53.6 °F - 46.4 °F 77% 30.05 in 10.0 mi NE 5.8 mph - N/A   Overcast
4:53 PM 55.4 °F - 46.4 °F 72% 30.05 in 10.0 mi NE 4.6 mph - N/A   Overcast
5:14 PM 55.4 °F - 46.4 °F 72% 30.05 in 10.0 mi East 5.8 mph - N/A   Overcast
5:35 PM 55.4 °F - 46.4 °F 72% 30.05 in 10.0 mi East 4.6 mph - N/A   Overcast
5:52 PM 55.4 °F - 46.4 °F 72% 30.05 in 10.0 mi NE 6.9 mph - N/A   Overcast
6:15 PM 55.4 °F - 46.4 °F 72% 30.05 in 10.0 mi NE 4.6 mph - N/A   Overcast
6:35 PM 55.4 °F - 46.4 °F 72% 30.05 in 10.0 mi East 3.5 mph - N/A   Overcast
6:53 PM 55.4 °F - 46.4 °F 72% 30.05 in 10.0 mi East 5.8 mph - N/A   Overcast
7:15 PM 55.4 °F - 46.4 °F 72% 30.05 in 10.0 mi East 4.6 mph - N/A   Overcast
7:35 PM 53.6 °F - 46.4 °F 77% 30.05 in 10.0 mi East 3.5 mph - N/A   Overcast
7:53 PM 53.6 °F - 46.4 °F 77% 30.06 in 10.0 mi East 5.8 mph - N/A   Overcast
8:15 PM 53.6 °F - 46.4 °F 77% 30.06 in 10.0 mi ENE 3.5 mph - N/A   Overcast
8:35 PM 53.6 °F - 46.4 °F 77% 30.07 in 10.0 mi Calm Calm - N/A   Overcast
8:52 PM 53.6 °F - 46.4 °F 77% 30.06 in 10.0 mi East 3.5 mph - N/A   Overcast
9:14 PM 51.8 °F - 46.4 °F 82% 30.06 in 10.0 mi East 3.5 mph - N/A   Overcast
9:35 PM 51.8 °F - 46.4 °F 82% 30.06 in 10.0 mi Calm Calm - N/A   Overcast
9:53 PM 51.8 °F - 46.4 °F 82% 30.06 in 10.0 mi Calm Calm - N/A   Overcast
10:15 PM 51.8 °F - 46.4 °F 82% 30.07 in 10.0 mi Calm Calm - N/A   Overcast
10:35 PM 51.8 °F - 46.4 °F 82% 30.07 in 10.0 mi Calm Calm - N/A   Overcast
10:52 PM 50.0 °F - 46.4 °F 87% 30.06 in 10.0 mi Calm Calm - N/A   Overcast
11:14 PM 48.2 °F - 46.4 °F 93% 30.06 in 10.0 mi Calm Calm - N/A   Scattered Clouds
11:35 PM 46.4 °F - 44.6 °F 93% 30.06 in 7.0 mi Calm Calm - N/A   Clear
11:53 PM 44.6 °F - 44.6 °F 100% 30.05 in 10.0 mi Calm Calm - N/A   Clear